Location: Hicks
(37.9226°N, 89.9954°W)
Time: 07:51:32
(UTC+00:00)

Daily predictions for brighter satellites

Satellite Brightness Start Highest point End
(mag) Time Altitude Azimuth Time Altitude Azimuth Time Altitude Azimuth
Cosmos 2208 Rocket 4.5 12:00:40 10° S 12:05:50 65° ESE 12:10:59 10° NNE
CZ-3C R/B 4.1 12:00:32 10° SW 12:06:07 29° SSE 12:32:46 10° ESE
Helios 1A Rocket 2.8 12:03:16 10° S 12:06:25 39° W 12:09:23 11° NNW
USA 290 4.0 12:03:51 10° S 12:06:48 36° ESE 12:09:47 10° NE
Cosmos 2322 Rocket 2.8 12:03:51 13° NW 12:08:15 35° WSW 12:13:18 10° SSW
Cosmos 1484 Rocket 2.6 12:05:57 10° N 12:09:12 45° WNW 12:12:24 10° SSW
BREEZE M DEB (TANK) 3.3 12:19:32 14° NW 12:21:00 20° N 12:24:08 10° NE
Cosmos 1812 Rocket 3.6 12:16:54 10° NNW 12:21:11 61° W 12:25:27 10° S
Cosmos 1602 Rocket 4.0 12:17:29 10° SSW 12:21:39 40° W 12:25:51 10° N
Meteor 1-25 Rocket 4.3 12:17:46 10° S 12:23:32 89° WNW 12:29:23 10° N
Cosmos 2221 2.6 12:19:54 10° NNW 12:23:55 52° W 12:27:57 10° S
Cosmos 2322 4.2 12:19:31 10° NNW 12:25:09 62° ENE 12:30:44 10° SSE
Cosmos 1437 Rocket 2.5 12:23:55 10° NNW 12:27:20 57° W 12:30:45 10° S
Okean 1-7 Rocket 3.9 12:29:02 10° SSW 12:33:20 45° W 12:37:38 10° N
Cosmos 1842 2.8 12:30:34 10° N 12:33:54 87° WSW 12:37:10 10° S
ATLAS 2AS CENTAUR R/B 3.3 12:29:03 10° WSW 12:35:20 34° NW 12:41:30 10° NNE
SL-4 R/B 2.2 12:34:11 10° WNW 12:37:09 35° SW 12:40:03 10° SSE
OAO 2 Rocket 3.9 12:32:10 10° W 12:37:17 57° S 12:42:18 10° ESE
Meteor 1-19 Rocket 4.5 12:33:13 10° NNW 12:39:00 60° W 12:44:53 10° S
IGS 5A 4.3 12:37:18 10° NNW 12:40:38 26° WNW 12:43:58 10° SW
Meteor 1-10 Rocket 4.4 12:34:47 10° NNW 12:40:39 63° W 12:46:28 10° S
ARIANE 5 R/B 2.7 12:36:26 10° NNE 12:41:41 88° ESE 12:46:54 10° SSW
Cosmos 1697 Rocket 3.5 23:03:58 10° SW 23:09:26 53° WNW 23:14:55 10° NNE
Cosmos 372 Rocket 4.3 23:05:04 10° S 23:10:00 48° ESE 23:14:55 10° NNE
Cosmos 1898 Rocket 3.9 23:08:52 10° S 23:13:39 41° ESE 23:18:30 10° NNE
NOSS 2-3 (D) 4.5 23:13:28 10° WSW 23:16:56 36° NW 23:20:25 10° NNE
Cosmos 2333 Rocket 4.0 23:21:45 10° ESE 23:23:09 11° E 23:24:33 10° E
IGS 5A 4.0 23:20:09 10° S 23:24:02 61° W 23:27:59 10° NNW
SL-16 R/B 3.6 23:19:02 10° N 23:24:56 47° WNW 23:30:47 10° SW
Okean 1 4.1 23:22:36 10° SSE 23:25:36 25° E 23:28:37 10° NE
Cosmos 1937 Rocket 4.0 23:22:21 10° S 23:27:10 40° ESE 23:31:56 10° NE
Cosmos 2058 Rocket 3.5 23:24:42 10° SSE 23:28:55 43° E 23:33:10 10° NNE
Cosmos 1606 Rocket 4.4 23:27:55 10° SSW 23:32:13 53° W 23:36:33 10° N
USA 238 DEB 3.9 23:27:35 10° SW 23:33:31 64° NW 23:40:01 10° NNE
USA 238 3.8 23:27:40 10° SW 23:33:37 65° NW 23:40:08 10° NNE
CZ-2D R/B 2.7 23:33:22 10° SSE 23:36:26 58° ENE 23:39:32 10° N
Cosmos-2242 3.2 23:32:23 10° SSE 23:36:26 47° E 23:40:32 10° NNE
GEOS 3 Rocket 4.2 23:39:01 10° NNE 23:44:17 58° NW 23:49:32 10° SW
SL-24 R/B - RUBIN 2 4.1 23:39:38 10° SSW 23:45:10 61° ESE 23:49:23 14° NE
SAR-Lupe-4 3.5 23:44:03 10° SSE 23:47:36 88° ENE 23:51:09 10° NNW
Aureole 1 Rocket 3.9 23:46:36 10° SSW 23:50:53 58° WNW 23:56:23 10° NNE
CZ-2D R/B 4.1 23:50:39 10° SE 23:54:24 33° ENE 23:58:08 10° N
Cosmos 2082 4.0 23:49:01 10° N 23:54:26 42° ENE 23:59:49 10° SE
ARIANE 5 R/B 2.7 23:49:39 10° S 23:54:41 78° WSW 23:59:51 10° NNW
